Location: Beaurecueil
(43.5122°N, 5.5450°E)
Time: 14:03:49
(UTC+00:00)

Cosmos 1782 Rocket - Pass Details

Date: 18 September 2020
Orbit: 606 x 632 km, 82.5° (Epoch: 30 October)

Event Time Altitude Azimuth Distance (km) Brightness Sun altitude
Rises 18:41:10 0° 192° (SSW) 2,877 7.0 -11.5°
Reaches altitude 10° 18:43:22 10° 194° (SSW) 1,980 6.2 -11.9°
Maximum altitude 18:47:45 72° 279° (W) 658 3.9 -12.6°
Drops below altitude 10° 18:52:13 10° 4° (N) 2,012 6.3 -13.4°
Sets 18:54:29 0° 7° (N) 2,928 7.1 -13.8°
